Date String (YYYY-MM-DD hh:mm:ss) UTC,Instrument flags,Ambient pressure (hPa),Sample flow (lpm),Bypass flow (lpm),Sample temperature (°C),Ambient temperature (°C),ASC tube jacket temperature (°C),LED temperature (°C),Box temperature (°C),Sample RH (%),Span deviation,Mass concentration (μg/m³),Mass concentration (μg/m³),Mass concentration (μg/m³)
DateTimeUTC,F1_M11,P_M11,Q1_M11,Q2_M11,T1_M11,T2_M11,T3_M11,T4_M11,T5_M11,U1_M11,ZSPAN_M11,X0_M11,X2_M11,X1_M11
2021-12-10 09:00:00,,0809.6,5.00,0.00,23.7,22.8,00.0,32.7,25.4,14.3,0000.0,0017.22,0003.79,0001.55
2021-12-10 09:01:00,,0809.5,4.99,0.00,23.7,22.8,00.0,32.7,25.4,14.3,0000.0,0017.27,0003.76,0001.53
2021-12-10 09:02:00,,0809.5,5.00,0.00,23.7,22.7,00.0,32.7,25.4,14.3,0000.0,0016.09,0003.74,0001.53
2021-12-10 09:03:00,,0809.5,5.00,0.00,23.6,22.7,00.0,32.7,25.4,14.4,0000.0,0015.98,0003.72,0001.53
2021-12-10 09:04:00,,0809.5,4.99,0.00,23.6,22.7,00.0,32.7,25.4,14.4,0000.0,0014.86,0003.72,0001.53
2021-12-10 09:05:00,,0809.6,5.00,0.00,23.6,22.7,00.0,32.6,25.3,14.4,0000.0,0014.97,0003.70,0001.52
2021-12-10 09:06:00,,0809.6,5.00,0.00,23.6,22.7,00.0,32.6,25.3,14.4,0000.0,0014.70,0003.73,0001.51
2021-12-10 09:07:00,,0809.7,5.00,0.00,23.6,22.7,00.0,32.6,25.3,14.4,0000.0,0013.42,0003.71,0001.52
2021-12-10 09:08:00,,0809.7,4.99,0.00,23.6,22.7,00.0,32.6,25.3,14.4,0000.0,0013.60,0003.72,0001.51
2021-12-10 09:09:00,,0809.6,5.00,0.00,23.6,22.7,00.0,32.6,25.3,14.5,0000.0,0013.54,0003.72,0001.50
2021-12-10 09:10:00,,0809.6,5.00,0.00,23.5,22.6,00.0,32.6,25.2,14.6,0000.0,0013.70,0003.71,0001.49
2021-12-10 09:11:00,,0809.6,5.00,0.00,23.5,22.6,00.0,32.6,25.2,14.6,0000.0,0013.41,0003.73,0001.48
2021-12-10 09:12:00,,0809.6,4.99,0.00,23.5,22.6,00.0,32.6,25.2,14.7,0000.0,0013.72,0003.76,0001.49
2021-12-10 09:13:00,,0809.6,5.01,0.00,23.5,22.5,00.0,32.5,25.1,14.7,0000.0,0013.48,0003.75,0001.49
2021-12-10 09:14:00,,0809.7,5.00,0.00,23.4,22.5,00.0,32.5,25.1,14.8,0000.0,0013.18,0003.68,0001.48
2021-12-10 09:15:00,,0809.7,5.01,0.00,23.4,22.5,00.0,32.5,25.1,14.8,0000.0,0013.29,0003.64,0001.48
2021-12-10 09:16:00,,0809.7,5.01,0.00,23.4,22.5,00.0,32.5,25.1,14.8,0000.0,0013.12,0003.62,0001.48
2021-12-10 09:17:00,,0809.8,5.01,0.00,23.4,22.5,00.0,32.5,25.1,14.7,0000.0,0013.57,0003.64,0001.49
2021-12-10 09:18:00,,0810.0,5.01,0.00,23.4,22.5,00.0,32.5,25.1,14.8,0000.0,0013.66,0003.69,0001.51
2021-12-10 09:19:00,,0809.9,5.00,0.00,23.3,22.4,00.0,32.5,25.0,14.8,0000.0,0013.36,0003.69,0001.52
2021-12-10 09:20:00,,0809.9,4.99,0.00,23.3,22.4,00.0,32.4,25.0,14.9,0000.0,0013.99,0003.69,0001.53
2021-12-10 09:21:00,,0809.9,5.01,0.00,23.3,22.4,00.0,32.4,25.1,14.9,0000.0,0014.31,0003.67,0001.52
2021-12-10 09:22:00,,0809.9,5.01,0.00,23.3,22.4,00.0,32.4,25.0,14.8,0000.0,0015.06,0003.66,0001.52
2021-12-10 09:23:00,,0809.9,5.00,0.00,23.3,22.4,00.0,32.4,25.0,14.9,0000.0,0014.19,0003.64,0001.51
2021-12-10 09:24:00,,0810.0,4.99,0.00,23.3,22.4,00.0,32.4,25.0,14.9,0000.0,0014.58,0003.66,0001.50
2021-12-10 09:25:00,,0810.0,5.00,0.00,23.3,22.4,00.0,32.4,25.0,14.9,0000.0,0015.04,0003.71,0001.51
2021-12-10 09:26:00,,0810.0,5.01,0.00,23.3,22.4,00.0,32.4,25.0,14.9,0000.0,0014.95,0003.72,0001.52
2021-12-10 09:27:00,,0810.0,5.01,0.00,23.3,22.4,00.0,32.3,25.0,14.9,0000.0,0014.99,0003.74,0001.52
2021-12-10 09:28:00,,0810.0,5.00,0.00,23.3,22.4,00.0,32.3,25.0,14.9,0000.0,0014.79,0003.66,0001.51
2021-12-10 09:29:00,,0810.0,5.00,0.00,23.3,22.4,00.0,32.3,25.0,14.9,0000.0,0014.97,0003.63,0001.51
2021-12-10 09:30:00,,0810.0,5.00,0.00,23.3,22.4,00.0,32.3,25.0,14.9,0000.0,0014.99,0003.65,0001.51
2021-12-10 09:31:00,,0809.9,5.02,0.00,23.3,22.4,00.0,32.3,25.0,14.9,0000.0,0014.91,0003.65,0001.51
2021-12-10 09:32:00,,0809.8,5.00,0.00,23.2,22.3,00.0,32.3,25.0,14.9,0000.0,0014.95,0003.65,0001.51
2021-12-10 09:33:00,,0809.9,5.01,0.00,23.2,22.4,00.0,32.3,25.0,14.9,0000.0,0014.88,0003.61,0001.52
2021-12-10 09:34:00,,0809.9,5.00,0.00,23.3,22.4,00.0,32.3,25.0,14.9,0000.0,0015.22,0003.61,0001.53
2021-12-10 09:35:00,,0810.1,4.98,0.00,23.2,22.4,00.0,32.3,25.0,15.0,0000.0,0014.90,0003.62,0001.55
2021-12-10 09:36:00,,0810.1,5.01,0.00,23.2,22.4,00.0,32.3,25.0,15.0,0000.0,0014.04,0003.56,0001.56
2021-12-10 09:37:00,,0810.1,5.00,0.00,23.2,22.4,00.0,32.3,25.0,14.9,0000.0,0014.27,0003.52,0001.55
2021-12-10 09:38:00,,0810.1,4.99,0.00,23.2,22.4,00.0,32.3,25.0,14.9,0000.0,0014.78,0003.54,0001.55
2021-12-10 09:39:00,,0810.1,5.01,0.00,23.2,22.4,00.0,32.2,25.0,14.9,0000.0,0015.03,0003.61,0001.56
2021-12-10 09:40:00,,0810.1,5.00,0.00,23.2,22.4,00.0,32.2,25.0,14.9,0000.0,0014.88,0003.63,0001.55
2021-12-10 09:41:00,,0810.2,5.01,0.00,23.2,22.4,00.0,32.2,25.0,14.9,0000.0,0014.95,0003.60,0001.55
2021-12-10 09:42:00,,0810.2,4.99,0.00,23.2,22.4,00.0,32.2,25.0,15.0,0000.0,0014.94,0003.58,0001.55
2021-12-10 09:43:00,,0810.2,5.02,0.00,23.2,22.4,00.0,32.2,25.0,15.0,0000.0,0014.71,0003.59,0001.56
2021-12-10 09:44:00,,0810.2,4.99,0.00,23.2,22.3,00.0,32.2,25.0,15.0,0000.0,0014.66,0003.66,0001.57
2021-12-10 09:45:00,,0810.2,5.01,0.00,23.2,22.4,00.0,32.2,25.0,15.0,0000.0,0014.48,0003.68,0001.58
2021-12-10 09:46:00,,0810.2,5.00,0.00,23.2,22.4,00.0,32.2,25.0,15.0,0000.0,0014.36,0003.60,0001.57
2021-12-10 09:47:00,,0810.2,5.00,0.00,23.2,22.4,00.0,32.2,25.0,15.1,0000.0,0014.65,0003.63,0001.58
2021-12-10 09:48:00,,0810.2,5.00,0.00,23.2,22.3,00.0,32.2,25.0,15.1,0000.0,0015.14,0003.72,0001.61
2021-12-10 09:49:00,,0810.2,5.00,0.00,23.2,22.3,00.0,32.2,25.0,15.1,0000.0,0014.49,0003.70,0001.62
2021-12-10 09:50:00,,0810.2,4.99,0.00,23.2,22.3,00.0,32.2,25.0,15.1,0000.0,0014.57,0003.65,0001.63
2021-12-10 09:51:00,,0810.1,5.00,0.00,23.2,22.3,00.0,32.2,25.0,15.1,0000.0,0014.17,0003.62,0001.64
2021-12-10 09:52:00,,0810.2,5.01,0.00,23.2,22.3,00.0,32.2,25.0,15.2,0000.0,0014.16,0003.65,0001.65
2021-12-10 09:53:00,,0810.2,4.99,0.00,23.2,22.3,00.0,32.2,25.0,15.2,0000.0,0013.82,0003.68,0001.66
2021-12-10 09:54:00,,0810.2,5.00,0.00,23.2,22.3,00.0,32.2,25.0,15.2,0000.0,0013.60,0003.71,0001.69
2021-12-10 09:55:00,,0810.2,5.00,0.00,23.2,22.3,00.0,32.2,24.9,15.2,0000.0,0012.73,0003.65,0001.70
2021-12-10 09:56:00,,0810.2,5.00,0.00,23.2,22.3,00.0,32.2,25.0,15.2,0000.0,0012.45,0003.69,0001.72
2021-12-10 09:57:00,,0810.2,4.98,0.00,23.2,22.3,00.0,32.2,24.9,15.2,0000.0,0012.69,0003.81,0001.74
2021-12-10 09:58:00,,0810.2,4.99,0.00,23.2,22.3,00.0,32.1,24.9,15.3,0000.0,0012.61,0003.77,0001.74
2021-12-10 09:59:00,,0810.2,5.01,0.00,23.2,22.3,00.0,32.1,24.9,15.3,0000.0,0012.57,0003.70,0001.73
